Location: The Saddle
(36.8333°N, 80.3417°W)
Time: 08:41:32
(UTC-04:00)

Vanguard 2 Rocket - Pass Details

Date: 05 February 2023
Orbit: 555 x 3316 km, 32.9° (Epoch: 27 March)

Event Time Altitude Azimuth Distance (km) Brightness Sun altitude
Rises 09:45:52 0° 240° (WSW) 4,241 10.2 23.9°
Reaches altitude 10° 09:49:31 10° 234° (SW) 2,856 9.4 24.4°
Maximum altitude 09:55:20 37° 168° (SSE) 1,150 8.7 25.2°
Drops below altitude 10° 09:59:23 10° 100° (E) 1,973 9.6 25.7°
Sets 10:01:29 0° 91° (E) 2,777 10.0 26.0°
